Tracking 29892 objects as of 21-Nov-2024
HD Live streaming from Space Station
objects crossing your sky now

ARIANE 2 DEB

Track ARIANE 2 DEB now!


NORAD ID: 28562
Int'l Code: 1988-040F
Perigee: 521.3 km
Apogee: 33,231.6 km
Inclination: 7.8 °
Period: 587.9 minutes
Semi major axis: 23247 km
RCS: 3.3249 m2 (large)
Launch date: May 17, 1988
Source: France (FR)
Launch site: FRENCH GUIANA (FRGUI)

Note: This is SATELLITE DEBRIS
Your satellite tracking list
Your tracking list is empty




NASA's NSSDC Master Catalog

Two Line Element Set (TLE):
1 28562U 88040F   24325.80042308  .00001688  00000-0  12073-1 0  9991
2 28562   7.7633  89.3116 7035260 259.4167  21.0400  2.44929518188868
Source of the keplerian elements: AFSPC